Weather History for Crestview, FL

Change the Weather History Date:

Saturday, May 4, 2013

  Actual Average Record
Temperature  
Mean Temperature 57 °F -  
Max Temperature 69 °F 82 °F 93 °F (1952)
Min Temperature 45 °F 56 °F 39 °F (2004)
Degree Days  
Heating Degree Days 8    
Growing Degree Days 7 (Base 50)    
Moisture  
Dew Point 45 °F    
Average Humidity 78    
Maximum Humidity 94    
Minimum Humidity 30    
Precipitation  
Precipitation 0.43 in - - ()
Sea Level Pressure  
Sea Level Pressure 29.90 in    
Wind  
Wind Speed 13 mph (NNW)    
Max Wind Speed 20 mph    
Max Gust Speed 26 mph    
Visibility 6 miles    
Events Rain    
Averages and records for this station are not official NWS values.
T = Trace of Precipitation, MM = Missing Value Source: NWS Daily Summary

Daily Weather History Graph

Daily Weather History Graph

Search for Another Location

Airport:

Trip Planner

Search our weather history database for the weather conditions in past years. The results will help you decide how hot, cold, wet, or windy it might be!

Date:

Astronomy

May. 04, 2013 Rise Set
Actual Time 5:59 AM CDT 7:26 PM CDT
Civil Twilight 5:33 AM CDT 7:52 PM CDT
Nautical Twilight 5:02 AM CDT 8:23 PM CDT
Astronomical Twilight 4:30 AM CDT 8:55 PM CDT
Moon 2:36 AM CDT (5/4) 2:43 PM CDT (5/4)
Length of Visible Light 14h 19m
Length of Day
13h 27m
Waning Crescent, 27% of the Moon is Illuminated
May 4
Waning Crescent
May 9
New
May 17
First Quarter
May 24
Full
May 31
Last Quarter

Hourly Weather History & Observations

Time (CDT) Temp. Dew Point Humidity Pressure Visibility Wind Dir Wind Speed Gust Speed Precip Events Conditions
12:28 AM 57.2 °F 55.4 °F 94% 29.88 in 2.0 mi NW 13.8 mph 24.2 mph 0.08 in Rain Heavy Rain
12:45 AM 55.4 °F 51.8 °F 88% 29.88 in 6.0 mi NNW 16.1 mph 23.0 mph 0.12 in Rain Light Rain
12:53 AM 55.0 °F 52.0 °F 89% 29.88 in 5.0 mi NW 18.4 mph 26.5 mph 0.12 in Rain Light Rain
1:22 AM 53.6 °F 51.8 °F 94% 29.88 in 2.5 mi NNW 16.1 mph 25.3 mph 0.07 in Rain Heavy Rain
1:30 AM 53.6 °F 50.0 °F 88% 29.88 in 3.0 mi NNW 18.4 mph 26.5 mph 0.10 in Rain Rain
1:35 AM 51.8 °F 50.0 °F 94% 29.87 in 2.5 mi NNW 16.1 mph 26.5 mph 0.13 in Rain Heavy Rain
1:41 AM 51.8 °F 50.0 °F 94% 29.87 in 3.0 mi NNW 17.3 mph 23.0 mph 0.14 in Rain Rain
1:53 AM 52.0 °F 50.0 °F 93% 29.87 in 7.0 mi NNW 12.7 mph 23.0 mph 0.14 in Rain Light Rain
2:00 AM 51.8 °F 48.2 °F 88% 29.88 in 3.0 mi NNW 18.4 mph 26.5 mph 0.02 in Rain Rain
2:18 AM 50.0 °F 48.2 °F 94% 29.87 in 1.8 mi NNW 15.0 mph 26.5 mph 0.08 in Rain Heavy Rain
2:26 AM 50.0 °F 48.2 °F 94% 29.87 in 3.0 mi NNW 15.0 mph 21.9 mph 0.09 in Rain Rain
2:43 AM 50.0 °F 48.2 °F 94% 29.87 in 6.0 mi NNW 11.5 mph 21.9 mph 0.09 in Rain Light Rain
2:53 AM 50.0 °F 46.9 °F 89% 29.87 in 3.0 mi NNW 13.8 mph 23.0 mph 0.10 in Rain Light Rain
3:53 AM 48.9 °F 46.0 °F 90% 29.86 in 5.0 mi NNW 10.4 mph 19.6 mph 0.02 in Rain Light Rain
4:44 AM 48.2 °F 46.4 °F 93% 29.87 in 2.5 mi NNW 9.2 mph - 0.01 in Rain Light Rain
4:53 AM 48.9 °F 46.0 °F 90% 29.87 in 4.0 mi NNW 8.1 mph - 0.01 in Rain Light Rain
5:53 AM 48.9 °F 46.0 °F 90% 29.88 in 4.0 mi NNW 9.2 mph - 0.01 in Rain Rain
6:02 AM 48.2 °F 46.4 °F 93% 29.88 in 4.0 mi NNW 9.2 mph - 0.00 in Rain Light Rain
6:14 AM 48.2 °F 46.4 °F 93% 29.89 in 3.0 mi NNW 12.7 mph - 0.00 in Rain Light Rain
6:20 AM 48.2 °F 46.4 °F 93% 29.89 in 1.8 mi NNW 6.9 mph 17.3 mph 0.00 in Rain Light Rain
6:53 AM 48.0 °F 46.0 °F 93% 29.91 in 1.5 mi NNW 10.4 mph 16.1 mph 0.02 in Rain Light Rain
7:00 AM 48.2 °F 46.4 °F 93% 29.91 in 3.0 mi NNW 10.4 mph - 0.00 in Rain Light Rain
7:33 AM 48.2 °F 46.4 °F 93% 29.91 in 1.5 mi NNW 12.7 mph 21.9 mph 0.01 in Rain Light Rain
7:53 AM 48.9 °F 46.0 °F 90% 29.92 in 2.0 mi NNW 10.4 mph 18.4 mph 0.01 in Rain Light Rain
8:00 AM 48.2 °F 46.4 °F 93% 29.92 in 1.8 mi NNW 9.2 mph 18.4 mph 0.00 in Rain Light Rain
8:13 AM 48.2 °F 46.4 °F 93% 29.91 in 3.0 mi North 6.9 mph - 0.00 in Rain Light Rain
8:53 AM 50.0 °F 46.9 °F 89% 29.92 in 10.0 mi North 10.4 mph - 0.00 in   Overcast
9:41 AM 53.6 °F 46.4 °F 77% 29.93 in 10.0 mi NNW 17.3 mph 23.0 mph N/A   Overcast
9:53 AM 53.1 °F 46.0 °F 77% 29.93 in 10.0 mi North 10.4 mph 21.9 mph N/A   Overcast
10:00 AM 53.6 °F 46.4 °F 77% 29.93 in 10.0 mi NNW 17.3 mph 23.0 mph N/A   Mostly Cloudy
10:10 AM 55.4 °F 44.6 °F 67% 29.94 in 10.0 mi NNW 19.6 mph 26.5 mph N/A   Scattered Clouds
10:53 AM 57.0 °F 42.1 °F 57% 29.94 in 10.0 mi NNW 16.1 mph 21.9 mph N/A   Partly Cloudy
11:53 AM 62.1 °F 41.0 °F 46% 29.93 in 10.0 mi NNW 16.1 mph 21.9 mph N/A   Clear
12:53 PM 64.9 °F 39.9 °F 40% 29.91 in 10.0 mi NW 15.0 mph 24.2 mph N/A   Clear
1:53 PM 66.9 °F 39.9 °F 37% 29.90 in 10.0 mi NNW 15.0 mph 24.2 mph N/A   Clear
2:53 PM 68.0 °F 39.0 °F 35% 29.89 in 10.0 mi Variable 6.9 mph 23.0 mph N/A   Clear
3:53 PM 68.0 °F 36.0 °F 31% 29.88 in 10.0 mi North 8.1 mph 20.7 mph N/A   Clear
4:53 PM 68.0 °F 36.0 °F 31% 29.88 in 10.0 mi North 9.2 mph 18.4 mph N/A   Clear
5:53 PM 66.0 °F 34.0 °F 30% 29.88 in 10.0 mi NW 16.1 mph - N/A   Clear
6:53 PM 64.0 °F 36.0 °F 35% 29.89 in 10.0 mi North 5.8 mph - N/A   Clear
7:53 PM 57.9 °F 39.9 °F 51% 29.90 in 10.0 mi Calm Calm - N/A   Clear
8:53 PM 50.0 °F 44.1 °F 80% 29.93 in 10.0 mi Calm Calm - N/A   Clear
9:53 PM 48.0 °F 44.1 °F 86% 29.94 in 10.0 mi Calm Calm - N/A   Clear
10:53 PM 46.0 °F 43.0 °F 89% 29.94 in 10.0 mi Calm Calm - N/A   Clear
11:53 PM 45.0 °F 42.1 °F 90% 29.92 in 10.0 mi Calm Calm - N/A   Clear